Météo par heure à Abadia

Ce jour, 3 Décembre, Jeudi

Heure Température Précipitation Vent Pression Humidité
00:00 +4°C° 0 mm 2 m/s 723 mmHg 62%
01:00 +4°C° 0 mm 2 m/s 722 mmHg 61%
02:00 +4°C° 0 mm 2 m/s 722 mmHg 60%
03:00 +4°C° 0 mm 2 m/s 722 mmHg 59%
04:00 +5°C° 0 mm 1 m/s 722 mmHg 59%
05:00 +4°C° 0 mm 1 m/s 721 mmHg 59%
06:00 +3°C° 0 mm 0 m/s 721 mmHg 59%
07:00 +4°C° 0 mm 0 m/s 721 mmHg 58%
08:00 +5°C° 0 mm 0 m/s 721 mmHg 57%
09:00 +6°C° 0 mm 0 m/s 720 mmHg 57%
10:00 +8°C° 0 mm 1 m/s 720 mmHg 53%
11:00 +10°C° 0 mm 1 m/s 719 mmHg 50%
12:00 +10°C° 0 mm 2 m/s 719 mmHg 46%
13:00 +10°C° 0 mm 2 m/s 718 mmHg 49%
14:00 +10°C° 0 mm 2 m/s 717 mmHg 51%
15:00 +10°C° 0 mm 2 m/s 716 mmHg 53%
16:00 +8°C° 0 mm 2 m/s 716 mmHg 60%
17:00 +7°C° 0 mm 2 m/s 715 mmHg 66%
18:00 +6°C° 0 mm 1 m/s 715 mmHg 73%
19:00 +6°C° 0 mm 2 m/s 715 mmHg 74%
20:00 +6°C° 0 mm 2 m/s 714 mmHg 75%
21:00 +7°C° 0 mm 2 m/s 714 mmHg 77%
22:00 +7°C° 0.1 mm 2 m/s 713 mmHg 81%
23:00 +7°C° 0.1 mm 3 m/s 712 mmHg 86%

Demain, 4 Décembre, Vendredi

Heure Température Précipitation Vent Pression Humidité
00:00 +7°C° 0.1 mm 3 m/s 711 mmHg 91%
01:00 +6°C° 0.6 mm 4 m/s 711 mmHg 91%
02:00 +6°C° 0.6 mm 5 m/s 710 mmHg 92%
03:00 +7°C° 0.6 mm 5 m/s 709 mmHg 93%
04:00 +6°C° 0.4 mm 5 m/s 709 mmHg 92%
05:00 +5°C° 0.4 mm 4 m/s 709 mmHg 91%
06:00 +4°C° 0.4 mm 3 m/s 709 mmHg 90%
07:00 +3°C° 0.7 mm 3 m/s 709 mmHg 91%
08:00 +3°C° 0.7 mm 3 m/s 709 mmHg 92%
09:00 +3°C° 0.7 mm 3 m/s 709 mmHg 92%
10:00 +3°C° 0.5 mm 3 m/s 709 mmHg 91%
11:00 +3°C° 0.5 mm 3 m/s 709 mmHg 89%
12:00 +4°C° 0.5 mm 2 m/s 709 mmHg 88%
13:00 +3°C° 0.3 mm 3 m/s 708 mmHg 87%
14:00 +3°C° 0.3 mm 3 m/s 708 mmHg 87%
15:00 +3°C° 0.3 mm 3 m/s 707 mmHg 87%
16:00 +3°C° 0.3 mm 3 m/s 707 mmHg 88%
17:00 +3°C° 0.3 mm 2 m/s 707 mmHg 90%
18:00 +3°C° 0.3 mm 2 m/s 707 mmHg 91%
19:00 +2°C° 0.1 mm 2 m/s 708 mmHg 91%
20:00 +2°C° 0.1 mm 2 m/s 708 mmHg 92%
21:00 +2°C° 0.1 mm 2 m/s 708 mmHg 92%
22:00 +1°C° 0 mm 2 m/s 709 mmHg 91%
23:00 +1°C° 0 mm 2 m/s 709 mmHg 91%

Après-demain, 5 Décembre, Samedi

Heure Température Précipitation Vent Pression Humidité
00:00 -1°C° 0 mm 2 m/s 709 mmHg 90%
01:00 +1°C° 0 mm 2 m/s 710 mmHg 91%
02:00 +1°C° 0 mm 2 m/s 710 mmHg 91%
03:00 +1°C° 0 mm 2 m/s 711 mmHg 92%
04:00 +1°C° 0 mm 2 m/s 711 mmHg 92%
05:00 +1°C° 0 mm 2 m/s 711 mmHg 92%
06:00 -1°C° 0 mm 2 m/s 711 mmHg 93%
07:00 +1°C° 0 mm 2 m/s 712 mmHg 91%
08:00 +2°C° 0 mm 2 m/s 713 mmHg 90%
09:00 +2°C° 0 mm 2 m/s 713 mmHg 88%
10:00 +2°C° 0 mm 3 m/s 713 mmHg 85%
11:00 +3°C° 0 mm 3 m/s 713 mmHg 81%
12:00 +5°C° 0 mm 4 m/s 713 mmHg 78%
13:00 +5°C° 0.1 mm 3 m/s 713 mmHg 79%
14:00 +5°C° 0.1 mm 3 m/s 713 mmHg 79%
15:00 +5°C° 0.1 mm 3 m/s 713 mmHg 80%
16:00 +5°C° 0.1 mm 2 m/s 713 mmHg 84%
17:00 +4°C° 0.1 mm 2 m/s 714 mmHg 89%
18:00 +4°C° 0.1 mm 2 m/s 714 mmHg 93%
19:00 +3°C° 0.1 mm 2 m/s 715 mmHg 93%
20:00 +3°C° 0.1 mm 2 m/s 715 mmHg 93%
21:00 +2°C° 0.1 mm 2 m/s 715 mmHg 93%
22:00 +2°C° 0 mm 2 m/s 716 mmHg 93%
23:00 +1°C° 0 mm 2 m/s 716 mmHg 93%

6 Décembre, Dimanche

Heure Température Précipitation Vent Pression Humidité
00:00 -1°C° 0 mm 2 m/s 716 mmHg 93%
01:00 +1°C° 0 mm 2 m/s 716 mmHg 93%
02:00 +1°C° 0 mm 2 m/s 716 mmHg 92%
03:00 +1°C° 0 mm 2 m/s 716 mmHg 92%
04:00 +1°C° 0 mm 2 m/s 716 mmHg 92%
05:00 +2°C° 0 mm 2 m/s 716 mmHg 92%
06:00 +2°C° 0 mm 2 m/s 717 mmHg 92%
07:00 +2°C° 0 mm 2 m/s 717 mmHg 91%
08:00 +3°C° 0 mm 2 m/s 717 mmHg 90%
09:00 +3°C° 0 mm 2 m/s 717 mmHg 89%
10:00 +4°C° 0.1 mm 2 m/s 717 mmHg 89%
11:00 +4°C° 0.1 mm 2 m/s 717 mmHg 90%
12:00 +4°C° 0.1 mm 3 m/s 717 mmHg 90%
13:00 +4°C° 0.1 mm 3 m/s 717 mmHg 87%
14:00 +5°C° 0.1 mm 3 m/s 717 mmHg 83%
15:00 +7°C° 0.1 mm 3 m/s 717 mmHg 80%
16:00 +6°C° 0 mm 2 m/s 717 mmHg 84%
17:00 +5°C° 0 mm 2 m/s 718 mmHg 88%
18:00 +4°C° 0 mm 2 m/s 718 mmHg 92%
19:00 +4°C° 0 mm 1 m/s 719 mmHg 92%
20:00 +4°C° 0 mm 1 m/s 719 mmHg 92%
21:00 +3°C° 0 mm 1 m/s 719 mmHg 92%
22:00 +3°C° 0 mm 1 m/s 720 mmHg 92%
23:00 +3°C° 0 mm 1 m/s 720 mmHg 91%

7 Décembre, Lundi

Heure Température Précipitation Vent Pression Humidité
00:00 +3°C° 0 mm 1 m/s 720 mmHg 90%
01:00 +2°C° 0 mm 1 m/s 720 mmHg 90%
02:00 +2°C° 0 mm 1 m/s 720 mmHg 89%
03:00 +2°C° 0 mm 1 m/s 721 mmHg 89%
04:00 +2°C° 0 mm 1 m/s 720 mmHg 89%
05:00 +2°C° 0 mm 1 m/s 720 mmHg 88%
06:00 +2°C° 0 mm 1 m/s 720 mmHg 88%
07:00 +3°C° 0 mm 1 m/s 721 mmHg 87%
08:00 +4°C° 0 mm 1 m/s 721 mmHg 86%
09:00 +5°C° 0 mm 1 m/s 722 mmHg 85%
10:00 +6°C° 0 mm 1 m/s 722 mmHg 83%
11:00 +8°C° 0 mm 1 m/s 722 mmHg 80%
12:00 +8°C° 0 mm 2 m/s 721 mmHg 77%
13:00 +8°C° 0 mm 2 m/s 721 mmHg 80%
14:00 +8°C° 0 mm 2 m/s 721 mmHg 83%
15:00 +7°C° 0 mm 2 m/s 720 mmHg 86%
16:00 +8°C° 0.1 mm 1 m/s 720 mmHg 88%
17:00 +8°C° 0.1 mm 1 m/s 720 mmHg 90%
18:00 +7°C° 0.1 mm 1 m/s 720 mmHg 92%
19:00 +8°C° 0.4 mm 1 m/s 720 mmHg 94%
20:00 +8°C° 0.4 mm 1 m/s 720 mmHg 95%
21:00 +7°C° 0.4 mm 2 m/s 720 mmHg 97%
22:00 +8°C° 0.2 mm 2 m/s 719 mmHg 97%
23:00 +8°C° 0.2 mm 2 m/s 719 mmHg 98%

8 Décembre, Mardi

Heure Température Précipitation Vent Pression Humidité
00:00 +8°C° 0.2 mm 2 m/s 719 mmHg 98%
01:00 +8°C° 0.1 mm 2 m/s 719 mmHg 98%
02:00 +8°C° 0.1 mm 2 m/s 719 mmHg 98%
03:00 +8°C° 0.1 mm 2 m/s 719 mmHg 98%
04:00 +8°C° 0 mm 2 m/s 719 mmHg 97%
05:00 +8°C° 0 mm 2 m/s 718 mmHg 96%
06:00 +8°C° 0 mm 2 m/s 718 mmHg 96%
07:00 +8°C° 0.2 mm 2 m/s 718 mmHg 96%
08:00 +8°C° 0.2 mm 3 m/s 718 mmHg 97%
09:00 +8°C° 0.2 mm 3 m/s 718 mmHg 97%
10:00 +8°C° 0.2 mm 4 m/s 718 mmHg 94%
11:00 +10°C° 0.2 mm 4 m/s 717 mmHg 91%
12:00 +11°C° 0.2 mm 4 m/s 717 mmHg 88%
13:00 +9°C° 0.4 mm 5 m/s 717 mmHg 88%
14:00 +9°C° 0.4 mm 5 m/s 717 mmHg 87%
15:00 +8°C° 0.4 mm 5 m/s 717 mmHg 87%
16:00 +7°C° 0.1 mm 5 m/s 718 mmHg 86%
17:00 +6°C° 0.1 mm 4 m/s 719 mmHg 85%
18:00 +5°C° 0.1 mm 4 m/s 720 mmHg 84%
19:00 +4°C° 0 mm 4 m/s 720 mmHg 85%
20:00 +3°C° 0 mm 3 m/s 721 mmHg 86%
21:00 +3°C° 0 mm 3 m/s 721 mmHg 87%
22:00 +3°C° 0 mm 3 m/s 722 mmHg 88%
23:00 +3°C° 0 mm 3 m/s 722 mmHg 89%
Voir plus

Nous avons besoin de votre consentement

Meteoprog et ses fournisseurs de services peuvent stocker et accéder à des données personnelles telles que des cookies, des identifiants d'appareils ou d'autres technologies similaires sur votre appareil et traiter ces données pour personnaliser le contenu et les publicités, ainsi que pour fournir des fonctionnalités de médias sociaux et analyser le trafic.

  • Stocker et/ou accéder à des informations sur votre appareil

    Des cookies, des identifiants d'appareils ou d'autres informations peuvent être stockés ou accessibles sur votre appareil aux fins indiquées ci-dessus.

  • Annonces et contenus personnalisés, mesure des annonces et des contenus, connaissance de l'audience et développement de produits

    Les annonces et le contenu peuvent être personnalisés en fonction d'un profil. D'autres données peuvent être ajoutées pour mieux personnaliser les annonces et le contenu. Les performances des publicités et du contenu peuvent être mesurées. Il est possible d'obtenir des informations sur le public qui a vu les publicités et le contenu. Ces données peuvent être utilisées pour développer ou améliorer l'expérience de l'utilisateur, les systèmes et les logiciels.

En cliquant sur "J'accepte", vous autorisez l'utilisation de cookies, des identifiants d'appareils, des balises web ou d'autres technologies similaires. Vos paramètres peuvent être modifiés dans le navigateur de votre appareil.

Dans certains cas, des intérêts légitimes peuvent être invoqués plutôt qu'un consentement. Vous pouvez en savoir plus à ce sujet dans notre Politique de confidentialité et de cookies.